Terminal Aerodrome Forecast
Issued by NWS Upton, NY

Home | Current Version | Previous Version | Text Only | Print | Product List | Glossary On
Versions: 1 2 3 4 5 6 7 8 9 10 11 12 13 14 15 16 17 18 19 20 21 22 23 24 25 26 27 28 29 30 31 32
000
FTUS41 KOKX 081720
TAFISP
TAF
KISP 081720Z 0818/0918 28013G18KT P6SM FEW040 BKN150
     FM082100 29014G23KT P6SM SCT030
     FM090300 30013G20KT P6SM FEW030
     FM091400 30016G23KT P6SM SCT040=

USA.gov is the U.S. government's official web portal to all federal, state and local government web resources and services.